This is the latest recevied weather packets stored in our database for station/object N1ORT. If no packets are shown the sender has not sent any weather packets the latest 10 day(s).
| Time | Temp. | Humidity | Pressure | Rain* | Wind** | Luminosity | Snow |
|---|---|---|---|---|---|---|---|
| 1776980584 | 16.67° C | 22% | 1007.3 hPa | 0 mm | - | 48 W/m² | - |
| 1776980279 | 16.67° C | 21% | 1007 hPa | 0 mm | - | 148 W/m² | - |
| 1776979975 | 16.67° C | 21% | 1006.9 hPa | 0 mm | - | 161 W/m² | - |
| 1776979670 | 16.67° C | 19% | 1007 hPa | 0 mm | - | 118 W/m² | - |
| 1776979368 | 16.67° C | 22% | 1007.1 hPa | 0 mm | - | 156 W/m² | - |
| 1776979064 | 17.22° C | 25% | 1007.1 hPa | 0 mm | - | 83 W/m² | - |
| 1776978761 | 16.67° C | 20% | 1007.1 hPa | 0 mm | - | 258 W/m² | - |
| 1776978458 | 17.22° C | 20% | 1007.1 hPa | 0 mm | - | 290 W/m² | - |
| 1776978156 | 17.22° C | 22% | 1006.9 hPa | 0 mm | - | 312 W/m² | - |
| 1776977853 | 17.22° C | 21% | 1006.8 hPa | 0 mm | - | 312 W/m² | - |
| 1776977549 | 16.67° C | 20% | 1006.7 hPa | 0 mm | - | 235 W/m² | - |
| 1776977245 | 17.22° C | 22% | 1007.2 hPa | 0 mm | - | 329 W/m² | - |
| 1776976942 | 17.22° C | 21% | 1007 hPa | 0 mm | - | 270 W/m² | - |
| 1776976638 | 17.22° C | 20% | 1006.9 hPa | 0 mm | - | 243 W/m² | - |
| 1776976333 | 17.78° C | 20% | 1007 hPa | 0 mm | - | 247 W/m² | - |
| 1776976029 | 17.22° C | 21% | 1006.9 hPa | 0 mm | - | 303 W/m² | - |
| 1776975725 | 17.22° C | 19% | 1006.9 hPa | 0 mm | - | 418 W/m² | - |
| 1776975422 | 17.22° C | 19% | 1007.1 hPa | 0 mm | - | 440 W/m² | - |
| 1776975119 | 17.22° C | 19% | 1007 hPa | 0 mm | - | 498 W/m² | - |
| 1776974816 | 17.22° C | 18% | 1007 hPa | 0 mm | - | 518 W/m² | - |
| 1776974513 | 17.78° C | 20% | 1007.1 hPa | 0 mm | - | 533 W/m² | - |
| 1776974210 | 17.78° C | 21% | 1007.1 hPa | 0 mm | - | 553 W/m² | - |
| 1776973907 | 17.22° C | 19% | 1007.2 hPa | 0 mm | - | 570 W/m² | - |
| 1776973605 | 17.22° C | 19% | 1006.9 hPa | 0 mm | - | 586 W/m² | - |
| 1776973302 | 16.67° C | 20% | 1007.1 hPa | 0 mm | - | 605 W/m² | - |
* Rain latest hour (hover to see other rain measurements)
** Current wind speed in m/s (hover to see current wind gust speed)